When you browse on this site, cookies collect data to enhance your experience and personalize the content and advertising you see.
Visit our Privacy Policy to learn more. By continuing to use the site, you agree to this use of cookies and data.
  • In Schweiz
  • Länderverzeichnis
  • Für 7 Tage
  • Wassertemperatur
  • Wetterkarte
  • Widgets
  • user-avatar
    Anmelden

    Stündliche Wetter Auckland

    Heute, 6 Juni, Samstag

    Zeit Temperatur Niederschläge Wind Luftdruck Luftfeuchtigkeit
    00:00 +13°C° 0 mm 4 m/S 756 mmHg 80%
    01:00 +13°C° 0 mm 4 m/S 756 mmHg 80%
    02:00 +13°C° 0 mm 4 m/S 756 mmHg 81%
    03:00 +13°C° 0 mm 4 m/S 756 mmHg 82%
    04:00 +12°C° 0 mm 4 m/S 756 mmHg 83%
    05:00 +13°C° 0 mm 4 m/S 757 mmHg 80%
    06:00 +13°C° 0 mm 4 m/S 757 mmHg 77%
    07:00 +14°C° 0 mm 4 m/S 758 mmHg 74%
    08:00 +15°C° 0 mm 5 m/S 758 mmHg 66%
    09:00 +17°C° 0 mm 6 m/S 758 mmHg 58%
    10:00 +19°C° 0 mm 6 m/S 758 mmHg 50%
    11:00 +18°C° 0 mm 7 m/S 759 mmHg 49%
    12:00 +18°C° 0 mm 8 m/S 759 mmHg 48%
    13:00 +18°C° 0 mm 8 m/S 759 mmHg 47%
    14:00 +18°C° 0 mm 8 m/S 759 mmHg 49%
    15:00 +18°C° 0 mm 8 m/S 759 mmHg 50%
    16:00 +18°C° 0 mm 8 m/S 759 mmHg 51%
    17:00 +17°C° 0 mm 8 m/S 759 mmHg 55%
    18:00 +16°C° 0 mm 7 m/S 760 mmHg 58%
    19:00 +15°C° 0 mm 7 m/S 760 mmHg 62%
    20:00 +14°C° 0 mm 6 m/S 760 mmHg 65%
    21:00 +13°C° 0 mm 5 m/S 761 mmHg 68%
    22:00 +13°C° 0 mm 4 m/S 761 mmHg 71%
    23:00 +12°C° 0 mm 5 m/S 761 mmHg 71%

    Morgen, 7 Juni, Sonntag

    Zeit Temperatur Niederschläge Wind Luftdruck Luftfeuchtigkeit
    00:00 +12°C° 0 mm 5 m/S 761 mmHg 71%
    01:00 +12°C° 0 mm 5 m/S 761 mmHg 71%
    02:00 +12°C° 0 mm 5 m/S 761 mmHg 70%
    03:00 +12°C° 0 mm 5 m/S 762 mmHg 69%
    04:00 +10°C° 0 mm 5 m/S 762 mmHg 68%
    05:00 +12°C° 0 mm 5 m/S 762 mmHg 65%
    06:00 +13°C° 0 mm 5 m/S 762 mmHg 62%
    07:00 +14°C° 0 mm 5 m/S 762 mmHg 58%
    08:00 +15°C° 0 mm 5 m/S 762 mmHg 53%
    09:00 +16°C° 0 mm 5 m/S 762 mmHg 48%
    10:00 +17°C° 0 mm 5 m/S 762 mmHg 42%
    11:00 +19°C° 0 mm 6 m/S 762 mmHg 42%
    12:00 +18°C° 0 mm 7 m/S 762 mmHg 41%
    13:00 +20°C° 0 mm 7 m/S 762 mmHg 40%
    14:00 +20°C° 0 mm 8 m/S 762 mmHg 41%
    15:00 +20°C° 0 mm 8 m/S 761 mmHg 41%
    16:00 +18°C° 0 mm 8 m/S 761 mmHg 41%
    17:00 +18°C° 0 mm 8 m/S 761 mmHg 43%
    18:00 +17°C° 0 mm 7 m/S 761 mmHg 46%
    19:00 +16°C° 0 mm 7 m/S 761 mmHg 48%
    20:00 +15°C° 0 mm 5 m/S 762 mmHg 53%
    21:00 +14°C° 0 mm 4 m/S 762 mmHg 57%
    22:00 +13°C° 0 mm 3 m/S 762 mmHg 61%
    23:00 +14°C° 0 mm 2 m/S 762 mmHg 62%

    übermorgen, 8 Juni, Montag

    Zeit Temperatur Niederschläge Wind Luftdruck Luftfeuchtigkeit
    00:00 +13°C° 0 mm 2 m/S 762 mmHg 63%
    01:00 +13°C° 0 mm 1 m/S 762 mmHg 64%
    02:00 +13°C° 0 mm 1 m/S 762 mmHg 65%
    03:00 +12°C° 0 mm 1 m/S 762 mmHg 66%
    04:00 +12°C° 0 mm 1 m/S 762 mmHg 67%
    05:00 +13°C° 0 mm 1 m/S 762 mmHg 61%
    06:00 +15°C° 0 mm 1 m/S 762 mmHg 55%
    07:00 +16°C° 0 mm 1 m/S 762 mmHg 49%
    08:00 +19°C° 0 mm 1 m/S 762 mmHg 42%
    09:00 +20°C° 0 mm 2 m/S 762 mmHg 36%
    10:00 +23°C° 0 mm 2 m/S 763 mmHg 30%
    11:00 +24°C° 0 mm 3 m/S 762 mmHg 29%
    12:00 +23°C° 0 mm 4 m/S 762 mmHg 29%
    13:00 +25°C° 0 mm 4 m/S 762 mmHg 28%
    14:00 +25°C° 0 mm 4 m/S 762 mmHg 29%
    15:00 +23°C° 0 mm 4 m/S 762 mmHg 31%
    16:00 +23°C° 0 mm 5 m/S 761 mmHg 33%
    17:00 +21°C° 0 mm 4 m/S 761 mmHg 37%
    18:00 +20°C° 0 mm 3 m/S 761 mmHg 41%
    19:00 +19°C° 0 mm 3 m/S 761 mmHg 45%
    20:00 +18°C° 0 mm 3 m/S 762 mmHg 49%
    21:00 +17°C° 0 mm 2 m/S 762 mmHg 53%
    22:00 +16°C° 0 mm 2 m/S 762 mmHg 57%
    23:00 +16°C° 0 mm 2 m/S 762 mmHg 60%

    9 Juni, Dienstag

    Zeit Temperatur Niederschläge Wind Luftdruck Luftfeuchtigkeit
    00:00 +15°C° 0 mm 2 m/S 762 mmHg 62%
    01:00 +15°C° 0 mm 2 m/S 761 mmHg 65%
    02:00 +14°C° 0 mm 1 m/S 761 mmHg 66%
    03:00 +14°C° 0 mm 1 m/S 761 mmHg 67%
    04:00 +14°C° 0 mm 1 m/S 761 mmHg 69%
    05:00 +15°C° 0 mm 1 m/S 761 mmHg 64%
    06:00 +15°C° 0 mm 0 m/S 762 mmHg 59%
    07:00 +16°C° 0 mm 0 m/S 762 mmHg 54%
    08:00 +21°C° 0 mm 1 m/S 762 mmHg 47%
    09:00 +23°C° 0 mm 1 m/S 762 mmHg 40%
    10:00 +26°C° 0 mm 1 m/S 762 mmHg 33%
    11:00 +26°C° 0 mm 2 m/S 762 mmHg 31%
    12:00 +27°C° 0 mm 3 m/S 762 mmHg 30%
    13:00 +28°C° 0 mm 3 m/S 761 mmHg 28%
    14:00 +28°C° 0 mm 4 m/S 761 mmHg 30%
    15:00 +28°C° 0 mm 4 m/S 761 mmHg 33%
    16:00 +27°C° 0 mm 5 m/S 761 mmHg 35%
    17:00 +26°C° 0 mm 4 m/S 761 mmHg 42%
    18:00 +23°C° 0 mm 4 m/S 761 mmHg 50%
    19:00 +22°C° 0 mm 3 m/S 760 mmHg 57%
    20:00 +21°C° 0 mm 3 m/S 761 mmHg 62%
    21:00 +19°C° 0 mm 3 m/S 761 mmHg 68%
    22:00 +18°C° 0 mm 2 m/S 761 mmHg 73%
    23:00 +18°C° 0 mm 2 m/S 761 mmHg 75%

    10 Juni, Mittwoch

    Zeit Temperatur Niederschläge Wind Luftdruck Luftfeuchtigkeit
    00:00 +17°C° 0 mm 2 m/S 760 mmHg 77%
    01:00 +17°C° 0 mm 2 m/S 760 mmHg 79%
    02:00 +18°C° 0 mm 1 m/S 760 mmHg 80%
    03:00 +16°C° 0 mm 1 m/S 760 mmHg 82%
    04:00 +16°C° 0 mm 1 m/S 760 mmHg 83%
    05:00 +18°C° 0 mm 1 m/S 760 mmHg 78%
    06:00 +19°C° 0 mm 1 m/S 760 mmHg 74%
    07:00 +20°C° 0 mm 1 m/S 760 mmHg 70%
    08:00 +22°C° 0 mm 1 m/S 760 mmHg 63%
    09:00 +24°C° 0 mm 2 m/S 760 mmHg 56%
    10:00 +26°C° 0 mm 2 m/S 760 mmHg 49%
    11:00 +26°C° 0 mm 3 m/S 760 mmHg 48%
    12:00 +26°C° 0 mm 4 m/S 760 mmHg 47%
    13:00 +27°C° 0 mm 5 m/S 759 mmHg 46%
    14:00 +26°C° 0 mm 5 m/S 759 mmHg 47%
    15:00 +26°C° 0 mm 5 m/S 759 mmHg 48%
    16:00 +25°C° 0 mm 5 m/S 759 mmHg 49%
    17:00 +23°C° 0 mm 4 m/S 759 mmHg 55%
    18:00 +21°C° 0 mm 4 m/S 759 mmHg 61%
    19:00 +19°C° 0 mm 4 m/S 759 mmHg 67%
    20:00 +18°C° 0 mm 4 m/S 759 mmHg 72%
    21:00 +17°C° 0 mm 3 m/S 760 mmHg 76%
    22:00 +16°C° 0 mm 2 m/S 760 mmHg 80%
    23:00 +16°C° 0 mm 2 m/S 760 mmHg 82%

    11 Juni, Donnerstag

    Zeit Temperatur Niederschläge Wind Luftdruck Luftfeuchtigkeit
    00:00 +15°C° 0 mm 2 m/S 759 mmHg 83%
    01:00 +15°C° 0 mm 2 m/S 759 mmHg 84%
    02:00 +15°C° 0 mm 2 m/S 759 mmHg 85%
    03:00 +14°C° 0 mm 2 m/S 759 mmHg 85%
    04:00 +14°C° 0 mm 2 m/S 759 mmHg 86%
    05:00 +15°C° 0 mm 2 m/S 759 mmHg 82%
    06:00 +16°C° 0 mm 2 m/S 759 mmHg 78%
    07:00 +16°C° 0 mm 2 m/S 759 mmHg 74%
    08:00 +18°C° 0 mm 2 m/S 759 mmHg 66%
    09:00 +20°C° 0 mm 2 m/S 759 mmHg 58%
    10:00 +22°C° 0 mm 3 m/S 759 mmHg 50%
    11:00 +24°C° 0 mm 3 m/S 759 mmHg 47%
    12:00 +25°C° 0 mm 3 m/S 759 mmHg 44%
    13:00 +25°C° 0 mm 4 m/S 758 mmHg 42%
    14:00 +25°C° 0 mm 4 m/S 758 mmHg 40%
    15:00 +25°C° 0 mm 4 m/S 758 mmHg 39%
    16:00 +25°C° 0 mm 4 m/S 758 mmHg 37%
    17:00 +23°C° 0 mm 4 m/S 757 mmHg 41%
    18:00 +21°C° 0 mm 3 m/S 757 mmHg 45%
    19:00 +20°C° 0 mm 3 m/S 757 mmHg 49%
    20:00 +19°C° 0 mm 3 m/S 758 mmHg 54%
    21:00 +18°C° 0 mm 3 m/S 758 mmHg 58%
    22:00 +17°C° 0 mm 2 m/S 758 mmHg 62%
    23:00 +16°C° 0 mm 2 m/S 758 mmHg 65%
    Mehr zeigen